Weather History for KPHD - August, 2013

Change the Weather History Date:

Wednesday, August 7, 2013

  Actual Average Record
Temperature  
Mean Temperature 72 °F 72 °F  
Max Temperature 83 °F 83 °F 93 °F (1968)
Min Temperature 61 °F 61 °F 44 °F (1994)
Degree Days  
Heating Degree Days 0 0  
Month to date heating degree days 1 0  
Since 1 June heating degree days 27 38  
Since 1 July heating degree days 5 3  
Cooling Degree Days 7 7  
Month to date cooling degree days 21 51  
Year to date cooling degree days 501 471  
Since 1 June cooling degree days 403 428  
Growing Degree Days 22 (Base 50)    
Moisture  
Dew Point 66 °F    
Average Humidity 79    
Maximum Humidity 93    
Minimum Humidity 65    
Precipitation  
Precipitation 0.50 in 0.11 in - ()
Month to date precipitation 0.74 0.66  
Year to date precipitation 22.90 24.02  
Sea Level Pressure  
Sea Level Pressure 29.95 in    
Wind  
Wind Speed 3 mph (SE)    
Max Wind Speed 20 mph    
Max Gust Speed 29 mph    
Visibility 7 miles    
Events Fog , Rain , Thunderstorm    
T = Trace of Precipitation, MM = Missing Value Source: NWS Daily Summary

Daily Weather History Graph

Daily Weather History Graph

Search for Another Location

Airport or City:

Trip Planner

Search our weather history database for the weather conditions in past years. The results will help you decide how hot, cold, wet, or windy it might be!

Date:

Astronomy

Aug. 07, 2013 Rise Set
Actual Time 6:28 AM EDT 8:33 PM EDT
Civil Twilight 5:58 AM EDT 9:03 PM EDT
Nautical Twilight 5:22 AM EDT 9:39 PM EDT
Astronomical Twilight 4:42 AM EDT 10:19 PM EDT
Moon 7:16 AM EDT 8:39 PM EDT
Length of Visible Light 15h 04m
Length of Day
14h 04m
New Moon, 1% of the Moon is Illuminated
Aug 7
New Moon
Aug 14
First Quarter
Aug 20
Full
Aug 28
Last Quarter
Sep 5
New

Hourly Weather History & Observations

Time (EDT) Temp. Heat Index Dew Point Humidity Pressure Visibility Wind Dir Wind Speed Gust Speed Precip Events Conditions
12:53 AM 63.0 °F - 59.0 °F 87% 29.97 in 7.0 mi Calm Calm - N/A   Clear
1:53 AM 61.0 °F - 57.9 °F 90% 29.98 in 7.0 mi Calm Calm - N/A   Clear
2:53 AM 61.0 °F - 57.9 °F 90% 29.98 in 7.0 mi Calm Calm - N/A   Clear
3:53 AM 63.0 °F - 59.0 °F 87% 29.97 in 6.0 mi Calm Calm - N/A   Mostly Cloudy
4:53 AM 62.1 °F - 59.0 °F 90% 29.96 in 5.0 mi Calm Calm - N/A   Scattered Clouds
5:53 AM 62.1 °F - 59.0 °F 90% 29.96 in 6.0 mi Calm Calm - N/A   Partly Cloudy
6:53 AM 63.0 °F - 60.1 °F 90% 29.97 in 4.0 mi SSE 3.5 mph - N/A   Mostly Cloudy
7:53 AM 64.9 °F - 61.0 °F 87% 29.96 in 6.0 mi SE 4.6 mph - N/A   Clear
8:53 AM 68.0 °F - 62.1 °F 81% 29.97 in 9.0 mi SE 3.5 mph - N/A   Clear
9:53 AM 70.0 °F - 63.0 °F 78% 29.98 in 10.0 mi SE 4.6 mph - N/A   Scattered Clouds
10:53 AM 71.1 °F - 64.0 °F 78% 29.99 in 10.0 mi Calm Calm - N/A   Overcast
11:53 AM 78.1 °F - 66.9 °F 68% 29.97 in 10.0 mi Variable 3.5 mph - N/A   Partly Cloudy
12:53 PM 78.1 °F - 68.0 °F 71% 29.96 in 10.0 mi South 5.8 mph - N/A   Mostly Cloudy
1:53 PM 82.0 °F 85.9 °F 70.0 °F 67% 29.95 in 10.0 mi Variable 3.5 mph - N/A   Scattered Clouds
2:53 PM 81.0 °F 84.4 °F 70.0 °F 69% 29.94 in 10.0 mi South 5.8 mph - 0.00 in   Mostly Cloudy
3:53 PM 82.9 °F 88.0 °F 72.0 °F 69% 29.93 in 10.0 mi Calm Calm - N/A   Unknown
4:04 PM 82.4 °F 87.2 °F 71.6 °F 70% 29.93 in 10.0 mi Calm Calm - N/A Thunderstorm Unknown
4:41 PM 75.2 °F - 73.4 °F 94% 29.96 in - NW 18.4 mph 24.2 mph 0.01 in Thunderstorm Thunderstorm
4:45 PM 71.6 °F - 66.2 °F 83% 29.94 in 1.5 mi North 19.6 mph 28.8 mph 0.16 in Rain , Thunderstorm Heavy Thunderstorms and Rain
4:47 PM 69.8 °F - 66.2 °F 88% 29.94 in 0.8 mi North 13.8 mph 28.8 mph 0.27 in Rain , Thunderstorm Heavy Thunderstorms and Rain
4:53 PM 70.0 °F - 66.0 °F 87% 29.92 in 0.5 mi Variable 6.9 mph 28.8 mph 0.48 in Fog , Rain , Thunderstorm Heavy Thunderstorms and Rain
5:00 PM 69.8 °F - 66.2 °F 88% 29.93 in 1.2 mi Calm Calm - 0.02 in Rain , Thunderstorm Light Thunderstorms and Rain
5:03 PM 71.6 °F - 66.2 °F 83% 29.94 in 3.0 mi WSW 4.6 mph - 0.02 in Rain , Thunderstorm Light Thunderstorms and Rain
5:37 PM 73.4 °F - 69.8 °F 88% 29.92 in 10.0 mi ESE 5.8 mph - 0.02 in   Mostly Cloudy
5:44 PM 75.2 °F - 69.8 °F 83% 29.92 in 10.0 mi ESE 4.6 mph - 0.02 in Thunderstorm Partly Cloudy
5:53 PM 75.0 °F - 69.1 °F 82% 29.91 in 10.0 mi ESE 4.6 mph - 0.02 in   Partly Cloudy
6:53 PM 73.9 °F - 68.0 °F 82% 29.93 in 10.0 mi SE 6.9 mph - N/A   Clear
7:53 PM 73.0 °F - 68.0 °F 84% 29.94 in 10.0 mi SE 5.8 mph - N/A   Scattered Clouds
8:53 PM 72.0 °F - 66.9 °F 84% 29.94 in 9.0 mi Calm Calm - N/A   Clear
9:53 PM 71.1 °F - 68.0 °F 90% 29.95 in 9.0 mi Calm Calm - N/A   Clear
10:53 PM 71.1 °F - 68.0 °F 90% 29.96 in 9.0 mi SE 6.9 mph - N/A   Mostly Cloudy
11:53 PM 71.1 °F - 68.0 °F 90% 29.96 in 9.0 mi SE 3.5 mph - N/A   Mostly Cloudy